Location: Briis
(48.6240°N, 2.1211°E)
Time: 05:27:04
(UTC+00:00)

Resurs 1-4 Rocket - Pass Details

Date: 25 September 2020
Orbit: 800 x 814 km, 98.6° (Epoch: 18 October)

Event Time Altitude Azimuth Distance (km) Brightness Sun altitude
Rises 01:22:04 0° 16° (NNE) 3,328 6.2 -37.8°
Reaches altitude 10° 01:24:25 10° 19° (NNE) 2,394 5.2 -37.6°
Enters shadow 01:26:56 29° 27° (NNE) 1,460 3.9 -37.4°
